Location: Maiden
(35.5760°N, 81.2120°W)
Time: 23:24:05
(UTC-04:00)

deb Explorer IX - All Passes

Search period start: 10 August 2020 00:00
Search period end: 20 August 2020 00:00
Orbit: 542 x 1102 km, 38.8° (Epoch: 09 August)

Date Brightness Start Highest point End Pass type
(mag) Time Alt. Az. Time Alt. Az. Time Alt. Az.
10 Aug - 13:10:59 10° SSW 13:16:23 31° SSE 13:21:07 10° E daylight
10 Aug - 14:57:25 10° WSW 15:03:13 86° SSE 15:08:07 10° ENE daylight
10 Aug - 16:45:15 10° W 16:50:20 58° N 16:54:44 10° ENE daylight
10 Aug - 18:32:46 10° WNW 18:37:24 83° NNE 18:41:34 10° ESE daylight
10 Aug - 20:20:14 10° W 20:23:50 27° SSW 20:27:17 10° SSE daylight
11 Aug - 12:47:40 10° SSW 12:53:17 32° SSE 12:58:13 10° E daylight
11 Aug - 14:34:10 10° WSW 14:40:10 86° SSE 14:45:14 10° ENE daylight
11 Aug - 16:22:03 10° W 16:27:20 59° N 16:31:51 10° ENE daylight
11 Aug - 18:09:39 10° WNW 18:14:26 84° NNE 18:18:39 10° ESE daylight
11 Aug - 19:57:12 10° W 20:00:52 27° SSW 20:04:20 10° SSE daylight
12 Aug - 12:24:20 10° SSW 12:30:09 33° SSE 12:35:17 10° E daylight
12 Aug - 14:10:54 10° WSW 14:17:05 87° SSE 14:22:18 10° ENE daylight
12 Aug - 15:58:50 10° W 16:04:18 60° N 16:08:58 10° ENE daylight
12 Aug - 17:46:30 10° WNW 17:51:27 84° NNE 17:55:45 10° ESE daylight
12 Aug - 19:34:08 10° W 19:37:53 27° SSW 19:41:23 10° SSE daylight
13 Aug - 12:01:01 10° SSW 12:07:00 34° SSE 12:12:19 10° E daylight
13 Aug - 13:47:37 10° WSW 13:53:59 88° SSE 13:59:22 10° ENE daylight
13 Aug - 15:35:36 10° W 15:41:16 60° N 15:46:04 10° ENE daylight
13 Aug - 17:23:19 10° WNW 17:28:27 85° NNE 17:32:51 10° ESE daylight
13 Aug - 19:11:01 10° W 19:14:53 27° SW 19:18:27 10° SSE daylight
14 Aug - 11:37:40 10° SSW 11:43:50 35° SSE 11:49:20 10° E daylight
14 Aug - 13:24:18 10° WSW 13:30:51 88° SSE 13:36:25 10° ENE daylight
14 Aug - 15:12:19 10° W 15:18:11 61° N 15:23:08 10° E daylight
14 Aug - 17:00:06 10° WNW 17:05:25 86° NNE 17:09:57 10° ESE daylight
14 Aug - 18:47:52 10° W 18:51:52 28° SW 18:55:31 10° SSE daylight
15 Aug - 11:14:19 10° SSW 11:20:38 36° SSE 11:26:18 10° E daylight
15 Aug - 13:00:59 10° WSW 13:07:42 88° SSE 13:13:25 10° ENE daylight
15 Aug - 14:49:02 10° W 14:55:05 62° N 15:00:12 10° E daylight
15 Aug - 16:36:51 10° WNW 16:42:21 87° NNE 16:47:01 10° ESE daylight
15 Aug - 18:24:41 10° W 18:28:50 28° SW 18:32:34 10° SSE daylight
16 Aug - 10:50:59 10° SSW 10:57:25 37° SSE 11:03:16 10° E daylight
16 Aug - 12:37:39 10° WSW 12:44:31 89° SSE 12:50:26 10° ENE daylight
16 Aug - 14:25:43 10° W 14:31:58 63° N 14:37:14 10° E daylight
16 Aug - 16:13:36 10° WNW 16:19:18 87° NNE 16:24:05 10° ESE daylight
16 Aug - 18:01:29 10° W 18:05:48 29° SW 18:09:38 10° SSE daylight
17 Aug - 08:47:11 10° SE 08:47:37 10° SE 08:48:03 10° SE daylight
17 Aug - 10:27:38 10° SSW 10:34:10 38° SSE 10:40:11 10° E daylight
17 Aug - 12:14:18 10° WSW 12:21:18 89° SSE 12:27:23 10° ENE daylight
17 Aug - 14:02:24 10° W 14:08:48 64° N 14:14:16 10° E daylight
17 Aug - 15:50:18 10° WNW 15:56:11 88° NNE 16:01:08 10° ESE daylight
17 Aug - 17:38:14 10° W 17:42:43 29° SW 17:46:40 10° SSE daylight
18 Aug - 08:23:17 10° SE 08:24:23 10° SE 08:25:28 10° SE daylight
18 Aug - 10:04:17 10° SSW 10:10:54 39° SSE 10:17:04 10° E daylight
18 Aug - 11:50:58 10° WSW 11:58:05 90° SE 12:04:20 10° ENE daylight
18 Aug - 13:39:03 10° W 13:45:38 64° N 13:51:15 10° E daylight
18 Aug - 15:26:59 10° WNW 15:33:03 88° NNE 15:38:09 10° ESE daylight
18 Aug - 17:14:57 10° W 17:19:37 30° SW 17:23:43 10° SSE daylight
19 Aug - 07:59:42 10° SSE 08:01:07 11° SE 08:02:32 10° SE daylight
19 Aug - 09:40:57 10° SSW 09:47:37 40° SSE 09:53:55 10° E daylight
19 Aug - 11:27:37 10° WSW 11:34:49 90° SSE 11:41:14 10° ENE daylight
19 Aug - 13:15:41 10° W 13:22:25 65° N 13:28:14 10° E daylight
19 Aug - 15:03:38 10° WNW 15:09:54 89° NNE 15:15:10 10° ESE daylight
19 Aug - 16:51:39 10° W 16:56:31 31° SW 17:00:44 10° SSE daylight
